Location: Fauquembergues
(50.6005°N, 2.0987°E)
Time: 20:14:13
(UTC+00:00)

Cosmos 1850 Rocket - Pass Details

Date: 14 July 2020
Orbit: 755 x 785 km, 74.0° (Epoch: 14 August)

Event Time Altitude Azimuth Distance (km) Brightness Sun altitude
Exits shadow 02:46:38 - 189° (S) 2,636 6.3 -8.7°
Reaches altitude 10° 02:47:25 10° 187° (S) 2,338 6.0 -8.7°
Maximum altitude 02:52:39 61° 109° (ESE) 893 4.5 -8.1°
Drops below altitude 10° 02:57:54 10° 30° (NNE) 2,351 8.1 -7.6°
Sets 03:00:19 0° 27° (NNE) 3,281 9.1 -7.3°
